Regional Weather Roundup
Issued by NWS

Home | Current Version | Previous Version | Graphics & Text | Print | Product List | Glossary On
Versions: 1 2 3 4 5 6 7 8 9 10 11 12 13 14 15 16 17 18 19 20 21 22 23 24 25 26 27 28 29 30 31 32 33 34 35 36 37 38 39 40 41 42 43 44 45 46 47 48 49 50
000
ASUS43 KFSD 241910
RWRSD

WEATHER ROUNDUP FOR SOUTH DAKOTA
NATIONAL WEATHER SERVICE SIOUX FALLS SD
200 PM CDT FRI OCT 24 2014

NOTE: "FAIR" INDICATES FEW OR NO CLOUDS BELOW 12,000 FEET WITH NO
SIGNIFICANT WEATHER AND/OR OBSTRUCTIONS TO VISIBILITY.


SDZ001>005-009-010-012>017-242000-
NORTHWEST AND NORTH CENTRAL SOUTH DAKOTA

CITY           SKY/WX    TMP DP  RH WIND       PRES   REMARKS
BUFFALO          N/A     65  32  29 NW23      29.95F
FAITH            N/A     71  39  31 N16       29.96F
MOBRIDGE       SUNNY     73  38  27 NW8       29.89F
$$

SDZ012>016-024>037-041>051-057-063-072>074-242000-
SOUTHWEST AND SOUTH CENTRAL SOUTH DAKOTA

CITY           SKY/WX    TMP DP  RH WIND       PRES   REMARKS
RAPID CTY ARPT MOSUNNY   71  36  27 N18       30.01S
PIERRE         SUNNY     74  38  27 W9        29.92F
CUSTER         SUNNY     70  27  20 VRB5      30.09F
ELLSWORTH AFB  SUNNY     69  36  29 N20       30.01S
PHILIP         MOSUNNY   76  34  21 VRB3      29.95F
PINE RIDGE     SUNNY     75  34  22 VRB6      30.01F
SPEARFISH      FAIR      64  37  36 N7        30.06F
WINNER         FAIR      75  27  17 CALM      29.95S
$$

SDZ004>011-016>023-039-040-242000-
NORTHEAST SOUTH DAKOTA

CITY           SKY/WX    TMP DP  RH WIND       PRES   REMARKS
ABERDEEN       PTSUNNY   74  40  29 W3        29.87F
WATERTOWN      PTSUNNY   71  39  31 W8        29.88S
SISSETON         N/A     76  37  24 NW12G23   29.83F
$$

SDZ017-020-022-023-036>040-048>070-242000-
SOUTHEAST SOUTH DAKOTA

CITY           SKY/WX    TMP DP  RH WIND       PRES   REMARKS
SIOUX FALLS    PTSUNNY   74  43  32 NW8       29.88F
HURON          MOSUNNY   76  36  23 VRB5      29.88F
CHAMBERLAIN    SUNNY     71  36  27 SW3       29.93F
MITCHELL       MOSUNNY   72  37  28 W5        29.91F
YANKTON        PTSUNNY   70  45  40 NW6       29.91S
$$

ABBREVIATIONS USED IN REMARKS
   TC - TEMPERATURE IN CELSIUS
  WCI - WIND CHILL INDEX
   HX - HEAT INDEX
  VSB - VISIBILITY




USA.gov is the U.S. government's official web portal to all federal, state and local government web resources and services.